Location: Ford County Road and Bridge Department
(37.7686°N, 99.9762°W)
Time: 18:43:19
(UTC+00:00)

Cosmos 2297 Rocket - Pass Details

Date: 18 January 2020
Orbit: 838 x 845 km, 71.0° (Epoch: 25 February)

Event Time Altitude Azimuth Distance (km) Brightness Sun altitude
Exits shadow 11:10:59 50° 46° (NE) 1,065 2.8 -31.7°
Maximum altitude 11:11:28 52° 64° (ENE) 1,046 2.8 -31.6°
Drops below altitude 10° 11:16:58 10° 140° (SE) 2,458 5.1 -30.5°
Sets 11:19:28 0° 145° (SE) 3,389 5.8 -30.0°
